Year,Month,Day,Hour,Minute,Value (Times are PST for temperature in C)
2013,05,04,00,00,16.30
2013,05,04,00,01,16.30
2013,05,04,00,02,16.30
2013,05,04,00,03,16.30
2013,05,04,00,04,16.30
2013,05,04,00,05,16.30
2013,05,04,00,06,16.30
2013,05,04,00,07,16.30
2013,05,04,00,08,16.20
2013,05,04,00,09,16.10
2013,05,04,00,10,16.10
2013,05,04,00,11,16.10
2013,05,04,00,12,16.20
2013,05,04,00,13,16.30
2013,05,04,00,14,16.40
2013,05,04,00,15,16.50
2013,05,04,00,16,16.60
2013,05,04,00,17,16.60
2013,05,04,00,18,16.50
2013,05,04,00,19,16.50
2013,05,04,00,20,16.50
2013,05,04,00,21,16.50
2013,05,04,00,22,16.50
2013,05,04,00,23,16.50
2013,05,04,00,24,16.50
2013,05,04,00,25,16.40
2013,05,04,00,26,16.40
2013,05,04,00,27,16.40
2013,05,04,00,28,16.40
2013,05,04,00,29,16.30
2013,05,04,00,30,16.30
2013,05,04,00,31,16.30
2013,05,04,00,32,16.20
2013,05,04,00,33,16.20
2013,05,04,00,34,16.10
2013,05,04,00,35,16.00
2013,05,04,00,36,16.00
2013,05,04,00,37,15.90
2013,05,04,00,38,15.90
2013,05,04,00,39,15.80
2013,05,04,00,40,15.80
2013,05,04,00,41,15.70
2013,05,04,00,42,15.70
2013,05,04,00,43,15.70
2013,05,04,00,44,15.70
2013,05,04,00,45,15.80
2013,05,04,00,46,15.80
2013,05,04,00,47,15.80
2013,05,04,00,48,15.80
2013,05,04,00,49,15.70
2013,05,04,00,50,15.60
2013,05,04,00,51,15.50
2013,05,04,00,52,15.40
2013,05,04,00,53,15.20
2013,05,04,00,54,15.00
2013,05,04,00,55,15.00
2013,05,04,00,56,14.80
2013,05,04,00,57,14.60
2013,05,04,00,58,14.50
2013,05,04,00,59,14.40
2013,05,04,01,00,14.30
2013,05,04,01,01,14.20
2013,05,04,01,02,14.20
2013,05,04,01,03,14.20
2013,05,04,01,04,14.30
2013,05,04,01,05,14.30
2013,05,04,01,06,14.30
2013,05,04,01,07,14.30
2013,05,04,01,08,14.20
2013,05,04,01,09,14.10
2013,05,04,01,10,14.00
2013,05,04,01,11,13.90
2013,05,04,01,12,13.80
2013,05,04,01,13,13.60
2013,05,04,01,14,13.50
2013,05,04,01,15,13.40
2013,05,04,01,16,13.20
2013,05,04,01,17,13.10
2013,05,04,01,18,13.00
2013,05,04,01,19,12.90
2013,05,04,01,20,12.90
2013,05,04,01,21,12.80
2013,05,04,01,22,12.80
2013,05,04,01,23,12.80
2013,05,04,01,24,12.80
2013,05,04,01,25,12.80
2013,05,04,01,26,12.90
2013,05,04,01,27,12.90
2013,05,04,01,28,12.90
2013,05,04,01,29,13.00
2013,05,04,01,30,13.00
2013,05,04,01,31,13.10
2013,05,04,01,32,13.10
2013,05,04,01,33,13.10
2013,05,04,01,34,13.10
2013,05,04,01,35,13.10
2013,05,04,01,36,13.10
2013,05,04,01,37,13.10
2013,05,04,01,38,13.10
2013,05,04,01,39,13.00
2013,05,04,01,40,13.00
2013,05,04,01,41,12.90
2013,05,04,01,42,12.70
2013,05,04,01,43,12.60
2013,05,04,01,44,12.50
2013,05,04,01,45,12.30
2013,05,04,01,46,12.20
2013,05,04,01,47,12.10
2013,05,04,01,48,12.00
2013,05,04,01,49,12.00
2013,05,04,01,50,11.90
2013,05,04,01,51,11.90
2013,05,04,01,52,11.90
2013,05,04,01,53,12.00
2013,05,04,01,54,12.00
2013,05,04,01,55,12.20
2013,05,04,01,56,12.30
2013,05,04,01,57,12.30
2013,05,04,01,58,12.30
2013,05,04,01,59,12.20
2013,05,04,02,00,12.20
2013,05,04,02,01,12.10
2013,05,04,02,02,12.00
2013,05,04,02,03,11.90
2013,05,04,02,04,11.80
2013,05,04,02,05,11.70
2013,05,04,02,06,11.60
2013,05,04,02,07,11.50
2013,05,04,02,08,11.40
2013,05,04,02,09,11.40
2013,05,04,02,10,11.40
2013,05,04,02,11,11.40
2013,05,04,02,12,11.40
2013,05,04,02,13,11.50
2013,05,04,02,14,11.50
2013,05,04,02,15,11.60
2013,05,04,02,16,11.70
2013,05,04,02,17,11.80
2013,05,04,02,18,11.80
2013,05,04,02,19,11.90
2013,05,04,02,20,12.10
2013,05,04,02,21,12.20
2013,05,04,02,22,12.20
2013,05,04,02,23,12.30
2013,05,04,02,24,12.30
2013,05,04,02,25,12.30
2013,05,04,02,26,12.30
2013,05,04,02,27,12.40
2013,05,04,02,28,12.40
2013,05,04,02,29,12.50
2013,05,04,02,30,12.50
2013,05,04,02,31,12.40
2013,05,04,02,32,12.40
2013,05,04,02,33,12.30
2013,05,04,02,34,12.30
2013,05,04,02,35,12.30
2013,05,04,02,36,12.30
2013,05,04,02,37,12.30
2013,05,04,02,38,12.30
2013,05,04,02,39,12.30
2013,05,04,02,40,12.30
2013,05,04,02,41,12.40
2013,05,04,02,42,12.50
2013,05,04,02,43,12.70
2013,05,04,02,44,12.80
2013,05,04,02,45,12.90
2013,05,04,02,46,13.00
2013,05,04,02,47,13.10
2013,05,04,02,48,13.10
2013,05,04,02,49,13.10
2013,05,04,02,50,13.00
2013,05,04,02,51,13.00
2013,05,04,02,52,12.90
2013,05,04,02,53,12.90
2013,05,04,02,54,12.80
2013,05,04,02,55,12.80
2013,05,04,02,56,12.70
2013,05,04,02,57,12.60
2013,05,04,02,58,12.60
2013,05,04,02,59,12.60
2013,05,04,03,00,12.60
2013,05,04,03,01,12.70
2013,05,04,03,02,12.70
2013,05,04,03,03,12.80
2013,05,04,03,04,12.80
2013,05,04,03,05,12.80
2013,05,04,03,06,12.90
2013,05,04,03,07,12.90
2013,05,04,03,08,12.80
2013,05,04,03,09,12.80
2013,05,04,03,10,12.70
2013,05,04,03,11,12.70
2013,05,04,03,12,12.60
2013,05,04,03,13,12.60
2013,05,04,03,14,12.60
2013,05,04,03,15,12.60
2013,05,04,03,16,12.60
2013,05,04,03,17,12.50
2013,05,04,03,18,12.50
2013,05,04,03,19,12.40
2013,05,04,03,20,12.40
2013,05,04,03,21,12.40
2013,05,04,03,22,12.40
2013,05,04,03,23,12.40
2013,05,04,03,24,12.40
2013,05,04,03,25,12.50
2013,05,04,03,26,12.50
2013,05,04,03,27,12.60
2013,05,04,03,28,12.60
2013,05,04,03,29,12.60
2013,05,04,03,30,12.60
2013,05,04,03,31,12.50
2013,05,04,03,32,12.40
2013,05,04,03,33,12.30
2013,05,04,03,34,12.20
2013,05,04,03,35,12.10
2013,05,04,03,36,12.00
2013,05,04,03,37,12.00
2013,05,04,03,38,11.90
2013,05,04,03,39,11.90
2013,05,04,03,40,11.90
2013,05,04,03,41,11.80
2013,05,04,03,42,11.80
2013,05,04,03,43,11.80
2013,05,04,03,44,11.80
2013,05,04,03,45,11.80
2013,05,04,03,46,11.80
2013,05,04,03,47,11.80
2013,05,04,03,48,11.90
2013,05,04,03,49,12.00
2013,05,04,03,50,12.10
2013,05,04,03,51,12.20
2013,05,04,03,52,12.20
2013,05,04,03,53,12.30
2013,05,04,03,54,12.30
2013,05,04,03,55,12.30
2013,05,04,03,56,12.30
2013,05,04,03,57,12.30
2013,05,04,03,58,12.30
2013,05,04,03,59,12.30
2013,05,04,04,00,12.30
2013,05,04,04,01,12.30
2013,05,04,04,02,12.40
2013,05,04,04,03,12.50
2013,05,04,04,04,12.50
2013,05,04,04,05,12.60
2013,05,04,04,06,12.70
2013,05,04,04,07,12.70
2013,05,04,04,08,12.70
2013,05,04,04,09,12.70
2013,05,04,04,10,12.70
2013,05,04,04,11,12.60
2013,05,04,04,12,12.50
2013,05,04,04,13,12.40
2013,05,04,04,14,12.30
2013,05,04,04,15,12.20
2013,05,04,04,16,12.10
2013,05,04,04,17,12.10
2013,05,04,04,18,12.10
2013,05,04,04,19,12.10
2013,05,04,04,20,12.10
2013,05,04,04,21,12.10
2013,05,04,04,22,12.10
2013,05,04,04,23,12.20
2013,05,04,04,24,12.30
2013,05,04,04,25,12.30
2013,05,04,04,26,12.30
2013,05,04,04,27,12.30
2013,05,04,04,28,12.40
2013,05,04,04,29,12.40
2013,05,04,04,30,12.40
2013,05,04,04,31,12.40
2013,05,04,04,32,12.50
2013,05,04,04,33,12.50
2013,05,04,04,34,12.40
2013,05,04,04,35,12.40
2013,05,04,04,36,12.30
2013,05,04,04,37,12.40
2013,05,04,04,38,12.50
2013,05,04,04,39,12.50
2013,05,04,04,40,12.60
2013,05,04,04,41,12.70
2013,05,04,04,42,12.80
2013,05,04,04,43,12.90
2013,05,04,04,44,13.00
2013,05,04,04,45,13.00
2013,05,04,04,46,13.10
2013,05,04,04,47,13.10
2013,05,04,04,48,13.10
2013,05,04,04,49,13.10
2013,05,04,04,50,13.00
2013,05,04,04,51,13.00
2013,05,04,04,52,12.90
2013,05,04,04,53,12.90
2013,05,04,04,54,12.90
2013,05,04,04,55,12.90
2013,05,04,04,56,12.90
2013,05,04,04,57,13.00
2013,05,04,04,58,13.00
2013,05,04,04,59,13.10
2013,05,04,05,00,13.10
2013,05,04,05,01,13.10
2013,05,04,05,02,13.10
2013,05,04,05,03,13.10
2013,05,04,05,04,13.10
2013,05,04,05,05,13.10
2013,05,04,05,06,13.10
2013,05,04,05,07,13.00
2013,05,04,05,08,13.00
2013,05,04,05,09,13.00
2013,05,04,05,10,12.90
2013,05,04,05,11,13.00
2013,05,04,05,12,13.00
2013,05,04,05,13,13.00
2013,05,04,05,14,12.90
2013,05,04,05,15,12.90
2013,05,04,05,16,13.00
2013,05,04,05,17,13.00
2013,05,04,05,18,13.00
2013,05,04,05,19,13.10
2013,05,04,05,20,13.10
2013,05,04,05,21,13.10
2013,05,04,05,22,13.10
2013,05,04,05,23,13.10
2013,05,04,05,24,13.10
2013,05,04,05,25,13.20
2013,05,04,05,26,13.20
2013,05,04,05,27,13.30
2013,05,04,05,28,13.30
2013,05,04,05,29,13.30
2013,05,04,05,30,13.40
2013,05,04,05,31,13.40
2013,05,04,05,32,13.40
2013,05,04,05,33,13.40
2013,05,04,05,34,13.30
2013,05,04,05,35,13.30
2013,05,04,05,36,13.30
2013,05,04,05,37,13.30
2013,05,04,05,38,13.30
2013,05,04,05,39,13.30
2013,05,04,05,40,13.30
2013,05,04,05,41,13.30
2013,05,04,05,42,13.30
2013,05,04,05,43,13.30
2013,05,04,05,44,13.30
2013,05,04,05,45,13.20
2013,05,04,05,46,13.20
2013,05,04,05,47,13.20
2013,05,04,05,48,13.20
2013,05,04,05,49,13.10
2013,05,04,05,50,13.10
2013,05,04,05,51,13.00
2013,05,04,05,52,13.00
2013,05,04,05,53,12.90
2013,05,04,05,54,12.90
2013,05,04,05,55,12.90
2013,05,04,05,56,12.90
2013,05,04,05,57,12.90
2013,05,04,05,58,12.90
2013,05,04,05,59,12.90
2013,05,04,06,00,12.90
2013,05,04,06,01,12.90
2013,05,04,06,02,12.90
2013,05,04,06,03,12.90
2013,05,04,06,04,12.90
2013,05,04,06,05,12.90
2013,05,04,06,06,12.80
2013,05,04,06,07,12.80
2013,05,04,06,08,12.80
2013,05,04,06,09,12.70
2013,05,04,06,10,12.70
2013,05,04,06,11,12.60
2013,05,04,06,12,12.60
2013,05,04,06,13,12.60
2013,05,04,06,14,12.50
2013,05,04,06,15,12.50
2013,05,04,06,16,12.50
2013,05,04,06,17,12.50
2013,05,04,06,18,12.50
2013,05,04,06,19,12.40
2013,05,04,06,20,12.40
2013,05,04,06,21,12.40
2013,05,04,06,22,12.40
2013,05,04,06,23,12.50
2013,05,04,06,24,12.50
2013,05,04,06,25,12.50
2013,05,04,06,26,12.60
2013,05,04,06,27,12.60
2013,05,04,06,28,12.60
2013,05,04,06,29,12.60
2013,05,04,06,30,12.60
2013,05,04,06,31,12.60
2013,05,04,06,32,12.60
2013,05,04,06,33,12.60
2013,05,04,06,34,12.60
2013,05,04,06,35,12.50
2013,05,04,06,36,12.50
2013,05,04,06,37,12.50
2013,05,04,06,38,12.40
2013,05,04,06,39,12.40
2013,05,04,06,40,12.50
2013,05,04,06,41,12.50
2013,05,04,06,42,12.50
2013,05,04,06,43,12.50
2013,05,04,06,44,12.50
2013,05,04,06,45,12.60
2013,05,04,06,46,12.60
2013,05,04,06,47,12.60
2013,05,04,06,48,12.70
2013,05,04,06,49,12.70
2013,05,04,06,50,12.70
2013,05,04,06,51,12.80
2013,05,04,06,52,12.80
2013,05,04,06,53,12.80
2013,05,04,06,54,12.90
2013,05,04,06,55,12.90
2013,05,04,06,56,12.90
2013,05,04,06,57,13.00
2013,05,04,06,58,13.10
2013,05,04,06,59,13.10
2013,05,04,07,00,13.10
2013,05,04,07,01,13.20
2013,05,04,07,02,13.30
2013,05,04,07,03,13.30
2013,05,04,07,04,13.30
2013,05,04,07,05,13.30
2013,05,04,07,06,13.30
2013,05,04,07,07,13.30
2013,05,04,07,08,13.40
2013,05,04,07,09,13.40
2013,05,04,07,10,13.40
2013,05,04,07,11,13.40
2013,05,04,07,12,13.50
2013,05,04,07,13,13.50
2013,05,04,07,14,13.50
2013,05,04,07,15,13.50
2013,05,04,07,16,13.60
2013,05,04,07,17,13.60
2013,05,04,07,18,13.60
2013,05,04,07,19,13.60
2013,05,04,07,20,13.70
2013,05,04,07,21,13.70
2013,05,04,07,22,13.70
2013,05,04,07,23,13.70
2013,05,04,07,24,13.70
2013,05,04,07,25,13.80
2013,05,04,07,26,13.80
2013,05,04,07,27,13.80
2013,05,04,07,28,13.80
2013,05,04,07,29,13.80
2013,05,04,07,30,13.80
2013,05,04,07,31,13.90
2013,05,04,07,32,13.90
2013,05,04,07,33,13.90
2013,05,04,07,34,13.90
2013,05,04,07,35,13.90
2013,05,04,07,36,14.00
2013,05,04,07,37,14.00
2013,05,04,07,38,14.00
2013,05,04,07,39,14.10
2013,05,04,07,40,14.10
2013,05,04,07,41,14.10
2013,05,04,07,42,14.20
2013,05,04,07,43,14.20
2013,05,04,07,44,14.20
2013,05,04,07,45,14.30
2013,05,04,07,46,14.30
2013,05,04,07,47,14.30
2013,05,04,07,48,14.40
2013,05,04,07,49,14.40
2013,05,04,07,50,14.40
2013,05,04,07,51,14.50
2013,05,04,07,52,14.60
2013,05,04,07,53,14.60
2013,05,04,07,54,14.60
2013,05,04,07,55,14.70
2013,05,04,07,56,14.70
2013,05,04,07,57,14.80
2013,05,04,07,58,14.80
2013,05,04,07,59,14.80
2013,05,04,08,00,14.90
2013,05,04,08,01,14.90
2013,05,04,08,02,15.00
2013,05,04,08,03,15.00
2013,05,04,08,04,15.00
2013,05,04,08,05,15.00
2013,05,04,08,06,15.00
2013,05,04,08,07,15.00
2013,05,04,08,08,15.00
2013,05,04,08,09,15.10
2013,05,04,08,10,15.10
2013,05,04,08,11,15.20
2013,05,04,08,12,15.20
2013,05,04,08,13,15.20
2013,05,04,08,14,15.20
2013,05,04,08,15,15.30
2013,05,04,08,16,15.30
2013,05,04,08,17,15.30
2013,05,04,08,18,15.30
2013,05,04,08,19,15.30
2013,05,04,08,20,15.30
2013,05,04,08,21,15.30
2013,05,04,08,22,15.40
2013,05,04,08,23,15.40
2013,05,04,08,24,15.40
2013,05,04,08,25,15.50
2013,05,04,08,26,15.50
2013,05,04,08,27,15.60
2013,05,04,08,28,15.60
2013,05,04,08,29,15.70
2013,05,04,08,30,15.70
2013,05,04,08,31,15.70
2013,05,04,08,32,15.70
2013,05,04,08,33,15.80
2013,05,04,08,34,15.80
2013,05,04,08,35,15.80
2013,05,04,08,36,15.80
2013,05,04,08,37,15.90
2013,05,04,08,38,15.90
2013,05,04,08,39,15.90
2013,05,04,08,40,16.00
2013,05,04,08,41,16.00
2013,05,04,08,42,16.10
2013,05,04,08,43,16.10
2013,05,04,08,44,16.10
2013,05,04,08,45,16.20
2013,05,04,08,46,16.20
2013,05,04,08,47,16.20
2013,05,04,08,48,16.30
2013,05,04,08,49,16.30
2013,05,04,08,50,16.30
2013,05,04,08,51,16.40
2013,05,04,08,52,16.40
2013,05,04,08,53,16.40
2013,05,04,08,54,16.50
2013,05,04,08,55,16.50
2013,05,04,08,56,16.40
2013,05,04,08,57,16.40
2013,05,04,08,58,16.40
2013,05,04,08,59,16.40
2013,05,04,09,00,16.50
2013,05,04,09,01,16.50
2013,05,04,09,02,16.50
2013,05,04,09,03,16.60
2013,05,04,09,04,16.60
2013,05,04,09,05,16.60
2013,05,04,09,06,16.50
2013,05,04,09,07,16.50
2013,05,04,09,08,16.50
2013,05,04,09,09,16.50
2013,05,04,09,10,16.50
2013,05,04,09,11,16.50
2013,05,04,09,12,16.60
2013,05,04,09,13,16.60
2013,05,04,09,14,16.60
2013,05,04,09,15,16.70
2013,05,04,09,16,16.70
2013,05,04,09,17,16.70
2013,05,04,09,18,16.70
2013,05,04,09,19,16.70
2013,05,04,09,20,16.70
2013,05,04,09,21,16.70
2013,05,04,09,22,16.80
2013,05,04,09,23,16.80
2013,05,04,09,24,16.90
2013,05,04,09,25,16.90
2013,05,04,09,26,16.90
2013,05,04,09,27,17.00
2013,05,04,09,28,17.00
2013,05,04,09,29,17.00
2013,05,04,09,30,17.10
2013,05,04,09,31,17.10
2013,05,04,09,32,17.20
2013,05,04,09,33,17.20
2013,05,04,09,34,17.30
2013,05,04,09,35,17.30
2013,05,04,09,36,17.30
2013,05,04,09,37,17.40
2013,05,04,09,38,17.30
2013,05,04,09,39,17.30
2013,05,04,09,40,17.40
2013,05,04,09,41,17.30
2013,05,04,09,42,17.30
2013,05,04,09,43,17.30
2013,05,04,09,44,17.30
2013,05,04,09,45,17.30
2013,05,04,09,46,17.30
2013,05,04,09,47,17.30
2013,05,04,09,48,17.30
2013,05,04,09,49,17.30
2013,05,04,09,50,17.40
2013,05,04,09,51,17.40
2013,05,04,09,52,17.40
2013,05,04,09,53,17.40
2013,05,04,09,54,17.40
2013,05,04,09,55,17.50
2013,05,04,09,56,17.60
2013,05,04,09,57,17.60
2013,05,04,09,58,17.60
2013,05,04,09,59,17.70
2013,05,04,10,00,17.80
2013,05,04,10,01,17.80
2013,05,04,10,02,17.80
2013,05,04,10,03,17.80
2013,05,04,10,04,17.80
2013,05,04,10,05,17.80
2013,05,04,10,06,17.80
2013,05,04,10,07,17.90
2013,05,04,10,08,18.00
2013,05,04,10,09,18.10
2013,05,04,10,10,18.10
2013,05,04,10,11,18.20
2013,05,04,10,12,18.20
2013,05,04,10,13,18.20
2013,05,04,10,14,18.20
2013,05,04,10,15,18.20
2013,05,04,10,16,18.20
2013,05,04,10,17,18.20
2013,05,04,10,18,18.20
2013,05,04,10,19,18.20
2013,05,04,10,20,18.30
2013,05,04,10,21,18.30
2013,05,04,10,22,18.30
2013,05,04,10,23,18.40
2013,05,04,10,24,18.40
2013,05,04,10,25,18.50
2013,05,04,10,26,18.60
2013,05,04,10,27,18.70
2013,05,04,10,28,18.70
2013,05,04,10,29,18.80
2013,05,04,10,30,18.80
2013,05,04,10,31,18.90
2013,05,04,10,32,18.90
2013,05,04,10,33,18.90
2013,05,04,10,34,18.90
2013,05,04,10,35,18.80
2013,05,04,10,36,18.80
2013,05,04,10,37,18.90
2013,05,04,10,38,18.90
2013,05,04,10,39,18.90
2013,05,04,10,40,19.00
2013,05,04,10,41,19.10
2013,05,04,10,42,19.20
2013,05,04,10,43,19.20
2013,05,04,10,44,19.30
2013,05,04,10,45,19.30
2013,05,04,10,46,19.30
2013,05,04,10,47,19.40
2013,05,04,10,48,19.40
2013,05,04,10,49,19.40
2013,05,04,10,50,19.40
2013,05,04,10,51,19.40
2013,05,04,10,52,19.40
2013,05,04,10,53,19.40
2013,05,04,10,54,19.30
2013,05,04,10,55,19.30
2013,05,04,10,56,19.30
2013,05,04,10,57,19.30
2013,05,04,10,58,19.30
2013,05,04,10,59,19.40
2013,05,04,11,00,19.40
2013,05,04,11,01,19.40
2013,05,04,11,02,19.40
2013,05,04,11,03,19.30
2013,05,04,11,04,19.30
2013,05,04,11,05,19.30
2013,05,04,11,06,19.30
2013,05,04,11,07,19.30
2013,05,04,11,08,19.30
2013,05,04,11,09,19.30
2013,05,04,11,10,19.40
2013,05,04,11,11,19.50
2013,05,04,11,12,19.50
2013,05,04,11,13,19.60
2013,05,04,11,14,19.60
2013,05,04,11,15,19.70
2013,05,04,11,16,19.80
2013,05,04,11,17,19.90
2013,05,04,11,18,20.00
2013,05,04,11,19,20.20
2013,05,04,11,20,20.30
2013,05,04,11,21,20.40
2013,05,04,11,22,20.50
2013,05,04,11,23,20.50
2013,05,04,11,24,20.60
2013,05,04,11,25,20.70
2013,05,04,11,26,20.70
2013,05,04,11,27,20.80
2013,05,04,11,28,20.80
2013,05,04,11,29,20.80
2013,05,04,11,30,20.90
2013,05,04,11,31,21.00
2013,05,04,11,32,21.00
2013,05,04,11,33,21.00
2013,05,04,11,34,21.00
2013,05,04,11,35,21.00
2013,05,04,11,36,21.10
2013,05,04,11,37,21.10
2013,05,04,11,38,21.10
2013,05,04,11,39,21.20
2013,05,04,11,40,21.30
2013,05,04,11,41,21.30
2013,05,04,11,42,21.30
2013,05,04,11,43,21.30
2013,05,04,11,44,21.30
2013,05,04,11,45,21.30
2013,05,04,11,46,21.30
2013,05,04,11,47,21.40
2013,05,04,11,48,21.40
2013,05,04,11,49,21.40
2013,05,04,11,50,21.40
2013,05,04,11,51,21.40
2013,05,04,11,52,21.40
2013,05,04,11,53,21.40
2013,05,04,11,54,21.40
2013,05,04,11,55,21.50
2013,05,04,11,56,21.60
2013,05,04,11,57,21.70
2013,05,04,11,58,21.80
2013,05,04,11,59,21.80
2013,05,04,12,00,21.80
2013,05,04,12,01,21.80
2013,05,04,12,02,21.80
2013,05,04,12,03,21.80
2013,05,04,12,04,21.70
2013,05,04,12,05,21.60
2013,05,04,12,06,21.60
2013,05,04,12,07,21.50
2013,05,04,12,08,21.40
2013,05,04,12,09,21.30
2013,05,04,12,10,21.30
2013,05,04,12,11,21.40
2013,05,04,12,12,21.40
2013,05,04,12,13,21.50
2013,05,04,12,14,21.60
2013,05,04,12,15,21.60
2013,05,04,12,16,21.70
2013,05,04,12,17,21.70
2013,05,04,12,18,21.70
2013,05,04,12,19,21.80
2013,05,04,12,20,21.80
2013,05,04,12,21,21.80
2013,05,04,12,22,21.70
2013,05,04,12,23,21.80
2013,05,04,12,24,21.80
2013,05,04,12,25,21.80
2013,05,04,12,26,21.80
2013,05,04,12,27,21.90
2013,05,04,12,28,22.00
2013,05,04,12,29,22.00
2013,05,04,12,30,22.00
2013,05,04,12,31,21.90
2013,05,04,12,32,21.90
2013,05,04,12,33,21.80
2013,05,04,12,34,21.80
2013,05,04,12,35,21.80
2013,05,04,12,36,21.80
2013,05,04,12,37,21.90
2013,05,04,12,38,22.00
2013,05,04,12,39,22.10
2013,05,04,12,40,22.30
2013,05,04,12,41,22.30
2013,05,04,12,42,22.20
2013,05,04,12,43,22.20
2013,05,04,12,44,22.20
2013,05,04,12,45,22.20
2013,05,04,12,46,22.20
2013,05,04,12,47,22.20
2013,05,04,12,48,22.20
2013,05,04,12,49,22.30
2013,05,04,12,50,22.20
2013,05,04,12,51,21.90
2013,05,04,12,52,21.50
2013,05,04,12,53,21.30
2013,05,04,12,54,21.30
2013,05,04,12,55,21.30
2013,05,04,12,56,21.30
2013,05,04,12,57,21.40
2013,05,04,12,58,21.50
2013,05,04,12,59,21.60
2013,05,04,13,00,21.70
2013,05,04,13,01,21.70
2013,05,04,13,02,21.80
2013,05,04,13,03,21.80
2013,05,04,13,04,21.80
2013,05,04,13,05,21.80
2013,05,04,13,06,21.80
2013,05,04,13,07,21.80
2013,05,04,13,08,21.80
2013,05,04,13,09,21.80
2013,05,04,13,10,21.70
2013,05,04,13,11,21.80
2013,05,04,13,12,21.70
2013,05,04,13,13,21.70
2013,05,04,13,14,21.60
2013,05,04,13,15,21.50
2013,05,04,13,16,21.50
2013,05,04,13,17,21.50
2013,05,04,13,18,21.50
2013,05,04,13,19,21.50
2013,05,04,13,20,21.50
2013,05,04,13,21,21.50
2013,05,04,13,22,21.50
2013,05,04,13,23,21.50
2013,05,04,13,24,21.40
2013,05,04,13,25,21.40
2013,05,04,13,26,21.50
2013,05,04,13,27,21.50
2013,05,04,13,28,21.50
2013,05,04,13,29,21.60
2013,05,04,13,30,21.50
2013,05,04,13,31,21.50
2013,05,04,13,32,21.50
2013,05,04,13,33,21.40
2013,05,04,13,34,21.40
2013,05,04,13,35,21.50
2013,05,04,13,36,21.50
2013,05,04,13,37,21.60
2013,05,04,13,38,21.60
2013,05,04,13,39,21.50
2013,05,04,13,40,21.50
2013,05,04,13,41,21.50
2013,05,04,13,42,21.50
2013,05,04,13,43,21.40
2013,05,04,13,44,21.40
2013,05,04,13,45,21.40
2013,05,04,13,46,21.40
2013,05,04,13,47,21.40
2013,05,04,13,48,21.50
2013,05,04,13,49,21.50
2013,05,04,13,50,21.60
2013,05,04,13,51,21.60
2013,05,04,13,52,21.60
2013,05,04,13,53,21.70
2013,05,04,13,54,21.70
2013,05,04,13,55,21.80
2013,05,04,13,56,21.80
2013,05,04,13,57,21.80
2013,05,04,13,58,21.90
2013,05,04,13,59,21.90
2013,05,04,14,00,22.00
2013,05,04,14,01,22.00
2013,05,04,14,02,22.10
2013,05,04,14,03,22.10
2013,05,04,14,04,22.00
2013,05,04,14,05,22.00
2013,05,04,14,06,21.90
2013,05,04,14,07,21.90
2013,05,04,14,08,22.00
2013,05,04,14,09,22.00
2013,05,04,14,10,22.10
2013,05,04,14,11,22.20
2013,05,04,14,12,22.20
2013,05,04,14,13,22.20
2013,05,04,14,14,22.20
2013,05,04,14,15,22.20
2013,05,04,14,16,22.30
2013,05,04,14,17,22.30
2013,05,04,14,18,22.30
2013,05,04,14,19,22.30
2013,05,04,14,20,22.30
2013,05,04,14,21,22.30
2013,05,04,14,22,22.30
2013,05,04,14,23,22.40
2013,05,04,14,24,22.50
2013,05,04,14,25,22.60
2013,05,04,14,26,22.60
2013,05,04,14,27,22.70
2013,05,04,14,28,22.70
2013,05,04,14,29,22.60
2013,05,04,14,30,22.60
2013,05,04,14,31,22.50
2013,05,04,14,32,22.50
2013,05,04,14,33,22.50
2013,05,04,14,34,22.50
2013,05,04,14,35,22.60
2013,05,04,14,36,22.60
2013,05,04,14,37,22.60
2013,05,04,14,38,22.60
2013,05,04,14,39,22.70
2013,05,04,14,40,22.70
2013,05,04,14,41,22.70
2013,05,04,14,42,22.60
2013,05,04,14,43,22.60
2013,05,04,14,44,22.60
2013,05,04,14,45,22.70
2013,05,04,14,46,22.70
2013,05,04,14,47,22.70
2013,05,04,14,48,22.80
2013,05,04,14,49,22.80
2013,05,04,14,50,22.90
2013,05,04,14,51,22.90
2013,05,04,14,52,22.80
2013,05,04,14,53,22.80
2013,05,04,14,54,22.80
2013,05,04,14,55,22.80
2013,05,04,14,56,22.80
2013,05,04,14,57,22.80
2013,05,04,14,58,22.80
2013,05,04,14,59,22.80
2013,05,04,15,00,22.80
2013,05,04,15,01,22.90
2013,05,04,15,02,23.00
2013,05,04,15,03,23.10
2013,05,04,15,04,23.10
2013,05,04,15,05,23.20
2013,05,04,15,06,23.20
2013,05,04,15,07,23.30
2013,05,04,15,08,23.20
2013,05,04,15,09,23.20
2013,05,04,15,10,23.20
2013,05,04,15,11,23.20
2013,05,04,15,12,23.30
2013,05,04,15,13,23.30
2013,05,04,15,14,23.30
2013,05,04,15,15,23.40
2013,05,04,15,16,23.40
2013,05,04,15,17,23.40
2013,05,04,15,18,23.50
2013,05,04,15,19,23.50
2013,05,04,15,20,23.50
2013,05,04,15,21,23.50
2013,05,04,15,22,23.60
2013,05,04,15,23,23.70
2013,05,04,15,24,23.60
2013,05,04,15,25,23.70
2013,05,04,15,26,23.70
2013,05,04,15,27,23.70
2013,05,04,15,28,23.70
2013,05,04,15,29,23.70
2013,05,04,15,30,23.80
2013,05,04,15,31,23.90
2013,05,04,15,32,23.90
2013,05,04,15,33,23.90
2013,05,04,15,34,24.00
2013,05,04,15,35,24.10
2013,05,04,15,36,24.10
2013,05,04,15,37,24.10
2013,05,04,15,38,24.10
2013,05,04,15,39,24.10
2013,05,04,15,40,24.10
2013,05,04,15,41,24.00
2013,05,04,15,42,23.90
2013,05,04,15,43,23.80
2013,05,04,15,44,23.80
2013,05,04,15,45,23.80
2013,05,04,15,46,23.80
2013,05,04,15,47,23.90
2013,05,04,15,48,23.90
2013,05,04,15,49,23.90
2013,05,04,15,50,23.90
2013,05,04,15,51,23.80
2013,05,04,15,52,23.80
2013,05,04,15,53,23.90
2013,05,04,15,54,23.90
2013,05,04,15,55,24.00
2013,05,04,15,56,24.00
2013,05,04,15,57,24.10
2013,05,04,15,58,24.10
2013,05,04,15,59,24.10
2013,05,04,16,00,24.10
2013,05,04,16,01,24.00
2013,05,04,16,02,24.00
2013,05,04,16,03,24.00
2013,05,04,16,04,23.90
2013,05,04,16,05,23.90
2013,05,04,16,06,23.90
2013,05,04,16,07,23.90
2013,05,04,16,08,24.00
2013,05,04,16,09,24.00
2013,05,04,16,10,24.10
2013,05,04,16,11,24.10
2013,05,04,16,12,24.00
2013,05,04,16,13,24.00
2013,05,04,16,14,24.10
2013,05,04,16,15,24.10
2013,05,04,16,16,24.10
2013,05,04,16,17,24.10
2013,05,04,16,18,24.10
2013,05,04,16,19,24.10
2013,05,04,16,20,24.10
2013,05,04,16,21,24.00
2013,05,04,16,22,24.00
2013,05,04,16,23,24.00
2013,05,04,16,24,23.90
2013,05,04,16,25,23.90
2013,05,04,16,26,23.90
2013,05,04,16,27,23.90
2013,05,04,16,28,23.90
2013,05,04,16,29,24.00
2013,05,04,16,30,24.10
2013,05,04,16,31,24.20
2013,05,04,16,32,24.20
2013,05,04,16,33,24.30
2013,05,04,16,34,24.30
2013,05,04,16,35,24.30
2013,05,04,16,36,24.30
2013,05,04,16,37,24.30
2013,05,04,16,38,24.30
2013,05,04,16,39,24.30
2013,05,04,16,40,24.30
2013,05,04,16,41,24.20
2013,05,04,16,42,24.20
2013,05,04,16,43,24.20
2013,05,04,16,44,24.20
2013,05,04,16,45,24.30
2013,05,04,16,46,24.40
2013,05,04,16,47,24.50
2013,05,04,16,48,24.50
2013,05,04,16,49,24.60
2013,05,04,16,50,24.60
2013,05,04,16,51,24.60
2013,05,04,16,52,24.70
2013,05,04,16,53,24.70
2013,05,04,16,54,24.80
2013,05,04,16,55,24.80
2013,05,04,16,56,24.70
2013,05,04,16,57,24.70
2013,05,04,16,58,24.70
2013,05,04,16,59,24.70
2013,05,04,17,00,24.70
2013,05,04,17,01,24.70
2013,05,04,17,02,24.70
2013,05,04,17,03,24.70
2013,05,04,17,04,24.70
2013,05,04,17,05,24.70
2013,05,04,17,06,24.70
2013,05,04,17,07,24.80
2013,05,04,17,08,24.70
2013,05,04,17,09,24.70
2013,05,04,17,10,24.70
2013,05,04,17,11,24.70
2013,05,04,17,12,24.70
2013,05,04,17,13,24.70
2013,05,04,17,14,24.70
2013,05,04,17,15,24.70
2013,05,04,17,16,24.60
2013,05,04,17,17,24.60
2013,05,04,17,18,24.50
2013,05,04,17,19,24.40